Back to catalog

DELTA 1 DEB

AliveSSO
NORAD 12179·DEBRIS·🇺🇸 United States

Launched Mar 5, 1978 from Vandenberg Space Force Base

Loading…

Next Passes (next 24 hours)

TLE

FreshSource: Space-Track

Epoch: Sep 14, 2026, 02:53 UTC

1 12179U 78026U   26257.12066446  .00000333  00000-0  19674-3 0  9993
2 12179  99.1793 202.2450 0161623 249.0416 178.5383 14.08455413326449

Track DELTA 1 DEB in real time with AllMySat

Download on the App Store